Location: Makakahi
(40.6833°S, 175.6000°E)
Time: 19:55:47
(UTC+00:00)

FENGYUN 1C DEB - Pass Details

Date: 11 February 2026
Orbit: 839 x 906 km, 98.9° (Epoch: 9 March)

Event Time Altitude Azimuth Distance (km) Brightness Sun altitude
Rises 09:10:11 0° 167° (SSE) 3,441 ? -18.2°
Reaches altitude 10° 09:12:33 10° 166° (SSE) 2,505 ? -18.5°
Maximum altitude 09:18:08 89° 254° (WSW) 872 ? -19.3°
Drops below altitude 10° 09:23:44 10° 344° (NNW) 2,513 ? -20.1°
Enters shadow 09:24:32 - 344° (NNW) 2,828 ? -20.3°
